When you browse on this site, cookies collect data to enhance your experience and personalize the content and advertising you see.
Visit our Privacy Policy to learn more. By continuing to use the site, you agree to this use of cookies and data.
  • în România
  • Lista ţărilor
  • Pe 7 zile
  • Temperatura apei
  • Hartă satelitară
  • Meteo pe hartă
  • Widget-uri
  • user-avatar
    Intrare

    Meteo pe oră la Wronki

    Astăzi, 25 Mai, Sâmbătă

    Timp Temperatura Precipitaţii Vânt Presiune Umiditate
    00:00 +15°C° 0 mm 2 m/s 753 mmHg 69%
    01:00 +14°C° 0 mm 2 m/s 753 mmHg 75%
    02:00 +14°C° 0 mm 2 m/s 753 mmHg 78%
    03:00 +12°C° 0 mm 3 m/s 753 mmHg 81%
    04:00 +12°C° 0 mm 3 m/s 753 mmHg 83%
    05:00 +13°C° 0 mm 3 m/s 753 mmHg 81%
    06:00 +14°C° 0 mm 3 m/s 753 mmHg 79%
    07:00 +16°C° 0 mm 3 m/s 753 mmHg 75%
    08:00 +17°C° 0 mm 3 m/s 754 mmHg 68%
    09:00 +18°C° 0 mm 4 m/s 754 mmHg 62%
    10:00 +20°C° 0 mm 4 m/s 754 mmHg 56%
    11:00 +20°C° 0 mm 4 m/s 754 mmHg 54%
    12:00 +21°C° 0 mm 4 m/s 754 mmHg 51%
    13:00 +21°C° 0 mm 4 m/s 754 mmHg 49%
    14:00 +21°C° 0 mm 4 m/s 754 mmHg 49%
    15:00 +21°C° 0 mm 4 m/s 754 mmHg 50%
    16:00 +21°C° 0 mm 4 m/s 754 mmHg 51%
    17:00 +19°C° 0 mm 4 m/s 754 mmHg 57%
    18:00 +18°C° 0 mm 3 m/s 754 mmHg 63%
    19:00 +16°C° 0 mm 3 m/s 754 mmHg 70%
    20:00 +14°C° 0 mm 3 m/s 755 mmHg 75%
    21:00 +13°C° 0 mm 2 m/s 755 mmHg 80%
    22:00 +10°C° 0 mm 2 m/s 755 mmHg 84%
    23:00 +10°C° 0 mm 2 m/s 755 mmHg 86%

    Mâine, 26 Mai, Duminică

    Timp Temperatura Precipitaţii Vânt Presiune Umiditate
    00:00 +9°C° 0 mm 2 m/s 755 mmHg 88%
    01:00 +9°C° 0 mm 1 m/s 755 mmHg 90%
    02:00 +8°C° 0 mm 2 m/s 755 mmHg 91%
    03:00 +8°C° 0 mm 2 m/s 755 mmHg 92%
    04:00 +7°C° 0 mm 2 m/s 755 mmHg 94%
    05:00 +9°C° 0 mm 2 m/s 755 mmHg 87%
    06:00 +11°C° 0 mm 3 m/s 755 mmHg 80%
    07:00 +12°C° 0 mm 3 m/s 755 mmHg 73%
    08:00 +14°C° 0 mm 3 m/s 755 mmHg 68%
    09:00 +15°C° 0 mm 4 m/s 755 mmHg 62%
    10:00 +18°C° 0 mm 4 m/s 754 mmHg 56%
    11:00 +19°C° 0 mm 4 m/s 754 mmHg 53%
    12:00 +20°C° 0 mm 5 m/s 753 mmHg 49%
    13:00 +22°C° 0 mm 5 m/s 753 mmHg 45%
    14:00 +22°C° 0 mm 5 m/s 753 mmHg 47%
    15:00 +22°C° 0 mm 5 m/s 752 mmHg 48%
    16:00 +22°C° 0 mm 5 m/s 752 mmHg 50%
    17:00 +21°C° 0 mm 4 m/s 752 mmHg 56%
    18:00 +20°C° 0 mm 3 m/s 752 mmHg 61%
    19:00 +19°C° 0 mm 2 m/s 752 mmHg 67%
    20:00 +18°C° 0 mm 2 m/s 752 mmHg 69%
    21:00 +17°C° 0 mm 2 m/s 752 mmHg 72%
    22:00 +16°C° 0 mm 2 m/s 752 mmHg 74%
    23:00 +16°C° 0 mm 2 m/s 751 mmHg 76%

    Poimâine, 27 Mai, Luni

    Timp Temperatura Precipitaţii Vânt Presiune Umiditate
    00:00 +16°C° 0 mm 3 m/s 751 mmHg 78%
    01:00 +16°C° 0 mm 3 m/s 751 mmHg 79%
    02:00 +16°C° 0 mm 3 m/s 751 mmHg 80%
    03:00 +14°C° 0 mm 3 m/s 751 mmHg 80%
    04:00 +14°C° 0 mm 3 m/s 750 mmHg 80%
    05:00 +15°C° 0 mm 4 m/s 750 mmHg 76%
    06:00 +17°C° 0 mm 4 m/s 750 mmHg 73%
    07:00 +19°C° 0 mm 5 m/s 750 mmHg 69%
    08:00 +20°C° 0 mm 5 m/s 750 mmHg 66%
    09:00 +21°C° 0 mm 5 m/s 750 mmHg 62%
    10:00 +23°C° 0 mm 6 m/s 750 mmHg 59%
    11:00 +23°C° 0.8 mm 6 m/s 750 mmHg 63%
    12:00 +22°C° 0.8 mm 6 m/s 750 mmHg 66%
    13:00 +22°C° 0.8 mm 6 m/s 750 mmHg 70%
    14:00 +22°C° 0.4 mm 5 m/s 750 mmHg 66%
    15:00 +23°C° 0.4 mm 4 m/s 750 mmHg 63%
    16:00 +24°C° 0.4 mm 3 m/s 750 mmHg 59%
    17:00 +21°C° 0 mm 3 m/s 750 mmHg 62%
    18:00 +20°C° 0 mm 3 m/s 750 mmHg 65%
    19:00 +19°C° 0 mm 3 m/s 750 mmHg 69%
    20:00 +17°C° 0 mm 3 m/s 750 mmHg 72%
    21:00 +16°C° 0 mm 3 m/s 751 mmHg 75%
    22:00 +13°C° 0 mm 3 m/s 751 mmHg 79%
    23:00 +13°C° 0 mm 3 m/s 750 mmHg 79%

    28 Mai, Marţi

    Timp Temperatura Precipitaţii Vânt Presiune Umiditate
    00:00 +13°C° 0 mm 3 m/s 750 mmHg 80%
    01:00 +13°C° 0 mm 3 m/s 750 mmHg 81%
    02:00 +12°C° 0.4 mm 3 m/s 749 mmHg 84%
    03:00 +12°C° 0.4 mm 3 m/s 749 mmHg 88%
    04:00 +12°C° 0.4 mm 3 m/s 748 mmHg 91%
    05:00 +12°C° 2.1 mm 4 m/s 748 mmHg 92%
    06:00 +12°C° 2.1 mm 4 m/s 748 mmHg 93%
    07:00 +12°C° 2.1 mm 4 m/s 748 mmHg 94%
    08:00 +12°C° 2.6 mm 4 m/s 748 mmHg 94%
    09:00 +11°C° 2.6 mm 4 m/s 748 mmHg 94%
    10:00 +11°C° 2.6 mm 4 m/s 747 mmHg 94%
    11:00 +11°C° 2.2 mm 4 m/s 748 mmHg 94%
    12:00 +11°C° 2.2 mm 4 m/s 748 mmHg 94%
    13:00 +11°C° 2.2 mm 4 m/s 748 mmHg 94%
    14:00 +11°C° 0.8 mm 4 m/s 748 mmHg 93%
    15:00 +11°C° 0.8 mm 3 m/s 748 mmHg 93%
    16:00 +11°C° 0.8 mm 3 m/s 748 mmHg 92%
    17:00 +11°C° 0.1 mm 3 m/s 748 mmHg 92%
    18:00 +12°C° 0.1 mm 2 m/s 748 mmHg 92%
    19:00 +12°C° 0.1 mm 2 m/s 748 mmHg 92%
    20:00 +12°C° 0 mm 2 m/s 749 mmHg 93%
    21:00 +10°C° 0 mm 2 m/s 749 mmHg 94%
    22:00 +9°C° 0 mm 2 m/s 749 mmHg 95%
    23:00 +9°C° 0 mm 2 m/s 749 mmHg 95%

    29 Mai, Miercuri

    Timp Temperatura Precipitaţii Vânt Presiune Umiditate
    00:00 +10°C° 0 mm 1 m/s 750 mmHg 95%
    01:00 +9°C° 0 mm 1 m/s 750 mmHg 94%
    02:00 +9°C° 0 mm 1 m/s 750 mmHg 94%
    03:00 +9°C° 0 mm 1 m/s 750 mmHg 93%
    04:00 +9°C° 0 mm 1 m/s 750 mmHg 92%
    05:00 +10°C° 0 mm 1 m/s 750 mmHg 89%
    06:00 +12°C° 0 mm 1 m/s 750 mmHg 87%
    07:00 +13°C° 0 mm 2 m/s 751 mmHg 84%
    08:00 +14°C° 0.1 mm 2 m/s 751 mmHg 81%
    09:00 +15°C° 0.1 mm 2 m/s 751 mmHg 78%
    10:00 +17°C° 0.1 mm 2 m/s 751 mmHg 75%
    11:00 +17°C° 0.4 mm 2 m/s 752 mmHg 73%
    12:00 +18°C° 0.4 mm 3 m/s 752 mmHg 72%
    13:00 +18°C° 0.4 mm 3 m/s 752 mmHg 70%
    14:00 +18°C° 0.5 mm 3 m/s 752 mmHg 73%
    15:00 +17°C° 0.5 mm 3 m/s 753 mmHg 75%
    16:00 +17°C° 0.5 mm 4 m/s 753 mmHg 78%
    17:00 +15°C° 0.2 mm 4 m/s 753 mmHg 81%
    18:00 +13°C° 0.2 mm 4 m/s 754 mmHg 84%
    19:00 +12°C° 0.2 mm 5 m/s 754 mmHg 87%
    20:00 +11°C° 0 mm 4 m/s 755 mmHg 87%
    21:00 +10°C° 0 mm 4 m/s 756 mmHg 88%
    22:00 +9°C° 0 mm 3 m/s 756 mmHg 88%
    23:00 +8°C° 0 mm 3 m/s 757 mmHg 88%

    30 Mai, Joi

    Timp Temperatura Precipitaţii Vânt Presiune Umiditate
    00:00 +7°C° 0 mm 2 m/s 757 mmHg 88%
    01:00 +6°C° 0 mm 2 m/s 758 mmHg 88%
    02:00 +6°C° 0 mm 2 m/s 758 mmHg 89%
    03:00 +6°C° 0 mm 2 m/s 759 mmHg 90%
    04:00 +6°C° 0 mm 2 m/s 759 mmHg 91%
    05:00 +7°C° 0 mm 2 m/s 759 mmHg 84%
    06:00 +10°C° 0 mm 1 m/s 760 mmHg 78%
    07:00 +12°C° 0 mm 1 m/s 760 mmHg 72%
    08:00 +13°C° 0 mm 1 m/s 760 mmHg 65%
    09:00 +15°C° 0 mm 2 m/s 760 mmHg 59%
    10:00 +16°C° 0 mm 2 m/s 760 mmHg 52%
    11:00 +17°C° 0 mm 2 m/s 760 mmHg 51%
    12:00 +17°C° 0 mm 2 m/s 760 mmHg 50%
    13:00 +18°C° 0 mm 2 m/s 760 mmHg 49%
    14:00 +18°C° 0 mm 2 m/s 759 mmHg 50%
    15:00 +18°C° 0 mm 2 m/s 759 mmHg 51%
    16:00 +19°C° 0 mm 2 m/s 759 mmHg 53%
    17:00 +18°C° 0.1 mm 2 m/s 759 mmHg 60%
    18:00 +17°C° 0.1 mm 2 m/s 759 mmHg 68%
    19:00 +16°C° 0.1 mm 3 m/s 758 mmHg 75%
    20:00 +14°C° 0 mm 3 m/s 758 mmHg 78%
    21:00 +13°C° 0 mm 3 m/s 758 mmHg 81%
    22:00 +12°C° 0 mm 3 m/s 759 mmHg 84%
    23:00 +12°C° 0 mm 3 m/s 758 mmHg 81%
    Arată mai mult